time_stamp(utc),avg(mph),gust(mph),direction(deg),12m_air_temp(f),sonic_u(cm/s),sonic_v(cm/s),sonic_w(cm/s),pressure,2m_air_temp(f),pyranometer(W/m^2)
"2021-11-29 00:01:02+00",8.2,8.2,,43.2,180,287,3,1009.56,39.3,0
"2021-11-29 00:06:02+00",9.6,10.6,,43.6,143,391,-2,1009.67,39.4,0
"2021-11-29 00:11:02+00",9.3,10.3,,,139,376,-5,1009.72,39.6,0
"2021-11-29 00:16:02+00",8.9,9.9,,,157,351,-2,1009.71,39.4,0
"2021-11-29 00:21:02+00",7.4,8.4,,42.6,152,281,-1,1009.9,39.3,0
"2021-11-29 00:26:02+00",9.6,11.6,,,49,411,-2,1009.87,39.1,0
"2021-11-29 00:31:02+00",9.9,10.9,,,-1,436,5,1009.99,39.1,0
"2021-11-29 00:36:02+00",9.1,10.1,,42.1,13,388,5,1009.9,39,0
"2021-11-29 00:41:02+00",10.0,11.0,,,43,436,1,1009.77,38.9,0
"2021-11-29 00:46:02+00",10.4,11.4,,41.7,115,418,-3,1009.71,38.9,0
"2021-11-29 00:51:02+00",8.6,10.6,,41.4,124,350,-7,1009.74,38.9,0
"2021-11-29 00:56:02+00",9.0,10.0,,41.2,158,355,-4,1009.76,38.8,0
"2021-11-29 01:01:02+00",8.9,9.9,,41.2,184,345,-1,1009.72,38.7,0
"2021-11-29 01:06:02+00",8.4,9.4,,,180,304,2,1009.69,38.6,0
"2021-11-29 01:11:02+00",5.6,7.6,,,151,170,6,1009.78,38.6,0
"2021-11-29 01:16:02+00",4.8,5.8,,,165,120,10,1009.79,38.4,0
"2021-11-29 01:21:02+00",5.3,6.3,,40.4,202,113,8,1009.78,38.2,0
"2021-11-29 01:26:02+00",5.9,6.9,,40.7,216,141,12,1009.67,37.9,0
"2021-11-29 01:31:02+00",5.0,6.0,,40.7,131,155,1,1009.8,37.6,0
"2021-11-29 01:36:02+00",6.5,7.5,,40.6,133,242,2,1009.82,37.5,0
"2021-11-29 01:41:02+00",7.5,8.5,,,186,248,3,1009.77,37.4,0
"2021-11-29 01:46:02+00",5.5,6.5,,40,184,144,11,1009.84,37.3,0
"2021-11-29 01:51:02+00",4.8,5.8,,40,154,128,5,1009.93,37.1,0
"2021-11-29 01:56:02+00",6.3,7.3,,40,116,239,-7,1009.89,36.9,0
"2021-11-29 02:01:02+00",8.9,9.9,,,120,363,-9,1009.81,37,0
"2021-11-29 02:06:02+00",7.6,7.6,,39.7,143,299,-3,1009.6,36.9,0
"2021-11-29 02:11:02+00",7.9,8.9,,39.3,179,266,-4,1009.54,36.8,0
"2021-11-29 02:16:02+00",8.5,9.5,,,178,320,1,1009.52,36.7,0
"2021-11-29 02:21:02+00",8.2,9.2,,39.1,140,325,-4,1009.61,36.5,0
"2021-11-29 02:26:02+00",7.4,8.4,,39.1,119,298,-5,1009.5,36.3,0
"2021-11-29 02:31:02+00",7.4,8.4,,39.2,104,301,-6,1009.44,36.3,0
"2021-11-29 02:36:02+00",7.7,7.7,,,65,308,0,1009.46,36.2,0
"2021-11-29 02:41:02+00",6.6,6.6,,,57,257,-1,1009.52,36.1,0
"2021-11-29 02:46:02+00",7.5,7.5,,39.7,87,298,-1,1009.44,36,0
"2021-11-29 02:51:02+00",6.5,7.5,,39.8,114,253,-1,1009.45,36.1,0
"2021-11-29 02:56:02+00",6.0,6.0,,,115,229,1,1009.55,36.2,0
"2021-11-29 03:01:02+00",5.6,6.6,,,64,218,-2,1009.53,36.3,0
"2021-11-29 03:06:02+00",5.4,5.4,,39.9,75,213,-2,1009.49,36.1,0
"2021-11-29 03:11:02+00",5.3,5.3,,39.7,43,212,0,1009.47,35.8,0
"2021-11-29 03:16:02+00",5.7,5.7,,39.6,82,227,0,1009.36,35.7,0
"2021-11-29 03:21:02+00",5.5,5.5,,39.6,62,212,-2,1009.33,35.7,0
"2021-11-29 03:26:02+00",5.6,6.6,,,3,237,0,1009.37,35.7,0
"2021-11-29 03:31:02+00",5.2,5.2,,39.3,-55,214,1,1009.45,35.5,0
"2021-11-29 03:36:02+00",5.4,5.4,,,-49,227,-1,1009.32,35.3,0
"2021-11-29 03:41:02+00",5.4,6.4,,39,-92,214,10,1009.33,35.2,0
"2021-11-29 03:46:02+00",6.3,6.3,,38.9,-131,238,13,1009.37,35.2,0
"2021-11-29 03:51:02+00",6.6,6.6,,38.5,-142,249,13,1009.41,35.3,0
"2021-11-29 03:56:02+00",6.8,7.8,,38.1,-97,276,6,1009.21,35.2,0
"2021-11-29 04:01:02+00",5.9,6.9,,,-123,220,7,1009.25,34.9,0
"2021-11-29 04:06:02+00",5.8,5.8,,38.2,-145,201,5,1009.25,34.8,0
"2021-11-29 04:11:02+00",5.3,6.3,,,-165,166,7,1009.18,35,0
"2021-11-29 04:16:02+00",5.4,5.4,,38.2,-127,193,10,1009.2,35.3,0
"2021-11-29 04:21:02+00",4.8,4.8,,38.3,-153,142,5,1009.2,35.4,0
"2021-11-29 04:26:02+00",4.3,4.3,,38.4,-128,130,4,1009.14,35.6,0
"2021-11-29 04:31:02+00",3.2,4.2,,38.6,-106,78,0,1009.15,35.8,0
"2021-11-29 04:36:02+00",2.6,3.6,,38.7,-97,13,8,1009.11,36,0
"2021-11-29 04:41:02+00",2.5,2.5,,38.7,-91,38,-10,1008.97,36.3,0
"2021-11-29 04:46:02+00",2.5,2.5,,38.9,-92,31,8,1008.9,36.6,0
"2021-11-29 04:51:02+00",3.2,4.2,,39.1,-121,57,1,1008.97,36.8,0
"2021-11-29 04:56:02+00",2.5,3.5,,39.4,-93,13,11,1009,37.1,0
"2021-11-29 05:01:02+00",2.7,2.7,,,-112,5,1,1009.03,37.3,0
"2021-11-29 05:06:02+00",2.9,2.9,,,-116,32,6,1009.04,37.5,0
"2021-11-29 05:11:02+00",2.8,2.8,,39.5,-114,-8,6,1009.08,37.6,0
"2021-11-29 05:16:02+00",3.0,3.0,,,-124,28,3,1009.2,37.7,0
"2021-11-29 05:21:02+00",3.2,3.2,,,-131,-3,3,1009.2,37.8,0
"2021-11-29 05:26:02+00",3.1,3.1,,39.6,-96,88,3,1009.17,38,0
"2021-11-29 05:31:02+00",3.8,3.8,,39.8,-137,93,8,1009.22,38.2,0
"2021-11-29 05:36:02+00",4.2,5.2,,39.7,-163,73,8,1009.3,38.4,0
"2021-11-29 05:41:02+00",4.3,4.3,,,-171,85,5,1009.29,38.6,0
"2021-11-29 05:46:02+00",5.7,5.7,,,-190,164,10,1009.23,38.7,0
"2021-11-29 05:51:02+00",5.8,6.8,,39,-210,151,15,1009.27,38.5,0
"2021-11-29 05:56:02+00",5.6,6.6,,,-220,124,12,1009.32,38.5,0
"2021-11-29 06:01:02+00",4.9,5.9,,39,-185,103,13,1009.24,38.5,0
"2021-11-29 06:06:02+00",4.3,5.3,,,-158,85,8,1009.19,38.5,0
"2021-11-29 06:11:02+00",4.3,5.3,,,-140,129,7,1009.08,38.6,0
"2021-11-29 06:16:02+00",4.9,4.9,,,-146,159,8,1009.07,38.7,0
"2021-11-29 06:21:02+00",5.5,6.5,,39.2,-174,167,13,1009.08,38.6,0
"2021-11-29 06:26:02+00",5.3,6.3,,,-160,171,13,1009.09,38.7,0
"2021-11-29 06:31:02+00",5.4,5.4,,39.1,-146,182,10,1008.92,38.6,0
"2021-11-29 06:36:02+00",5.2,6.2,,38.8,-123,187,7,1008.93,38.4,0
"2021-11-29 06:41:02+00",5.3,6.3,,,-133,184,11,1008.97,38.2,0
"2021-11-29 06:46:02+00",6.0,7.0,,38.3,-176,187,10,1009.01,38,0
"2021-11-29 06:51:02+00",5.9,6.9,,38.5,-199,156,11,1009.05,38,0
"2021-11-29 06:56:02+00",5.7,5.7,,38.8,-210,142,17,1009.09,38.2,0
"2021-11-29 07:01:02+00",7.0,7.0,,39.1,-262,164,20,1009.16,38.3,0
"2021-11-29 07:06:02+00",7.7,8.7,,39.1,-282,201,17,1009.16,38.5,0
"2021-11-29 07:11:02+00",9.2,10.2,,,-343,220,24,1009.19,38.6,0
"2021-11-29 07:16:02+00",9.4,10.4,,,-383,203,20,1009.19,38.7,0
"2021-11-29 07:21:02+00",10.2,11.2,,,-385,244,11,1009.23,38.7,0
"2021-11-29 07:26:02+00",12.2,14.2,,39.7,-403,355,26,1009.23,39,0
"2021-11-29 07:31:02+00",12.2,14.2,,39.6,-442,330,41,1009.11,39.2,0
"2021-11-29 07:36:02+00",10.7,12.7,,39.3,-382,293,39,1009.22,39.1,0
"2021-11-29 07:41:02+00",12.8,14.8,,39.1,-430,351,31,1009.2,38.9,0
"2021-11-29 07:46:02+00",12.5,13.5,,,-447,360,23,1009.17,38.8,0
"2021-11-29 07:51:02+00",12.1,13.1,,,-429,320,31,1009.26,38.8,0
"2021-11-29 07:56:02+00",11.4,13.4,,,-383,336,25,1009.05,39,0
"2021-11-29 08:01:02+00",11.4,12.4,,,-367,357,26,1008.93,39.1,0
"2021-11-29 08:06:02+00",11.3,12.3,,,-435,287,33,1009.1,39.2,0
"2021-11-29 08:11:02+00",13.9,16.9,,,-471,364,46,1009.2,39.4,0
"2021-11-29 08:16:02+00",14.2,16.2,,39.9,-543,359,26,1009.25,39.6,0
"2021-11-29 08:21:02+00",12.2,14.2,,39.8,-445,298,55,1009.25,39.5,0
"2021-11-29 08:26:02+00",13.1,14.1,,39.8,-485,352,27,1009.16,39.5,0
"2021-11-29 08:31:02+00",11.7,13.7,,40,-441,289,17,1009.08,39.6,0
"2021-11-29 08:36:02+00",10.8,12.8,,40.1,-407,246,28,1009.15,39.7,0
"2021-11-29 08:41:02+00",11.8,13.8,,,-458,283,21,1009.13,39.7,0
"2021-11-29 08:46:02+00",11.4,13.4,,40.2,-453,246,36,1009.27,39.8,0
"2021-11-29 08:51:02+00",12.0,13.0,,40.2,-498,233,29,1009.38,39.8,0
"2021-11-29 08:56:02+00",11.2,14.2,,,-445,240,28,1009.35,39.8,0
"2021-11-29 09:01:02+00",12.2,13.2,,,-486,229,7,1009.42,39.9,0
"2021-11-29 09:06:02+00",10.7,12.7,,,-426,252,34,1009.33,40,0
"2021-11-29 09:11:02+00",13.4,14.4,,,-530,294,16,1009.33,40.1,0
"2021-11-29 09:16:02+00",13.4,14.4,,,-523,309,22,1009.35,40.2,0
"2021-11-29 09:21:02+00",12.3,13.3,,40.6,-478,288,31,1009.35,40.2,0
"2021-11-29 09:26:02+00",12.0,14.0,,40.3,-461,272,30,1009.43,40.1,0
"2021-11-29 09:31:02+00",12.1,13.1,,40.2,-447,304,37,1009.41,40,0
"2021-11-29 09:36:02+00",12.5,14.5,,,-479,326,37,1009.44,39.9,0
"2021-11-29 09:41:02+00",12.0,15.0,,39.9,-419,334,43,1009.53,39.7,0
"2021-11-29 09:46:02+00",12.4,14.4,,39.8,-434,344,33,1009.51,39.6,0
"2021-11-29 09:51:02+00",11.9,13.9,,39.9,-406,340,52,1009.62,39.6,0
"2021-11-29 09:56:02+00",13.0,14.0,,,-437,395,37,1009.61,39.6,0
"2021-11-29 10:01:02+00",12.5,14.5,,39.7,-350,412,39,1009.67,39.4,0
"2021-11-29 10:06:02+00",17.2,21.2,,,-497,595,42,1009.78,39.3,0
"2021-11-29 10:11:02+00",13.6,14.6,,39.4,-401,457,29,1009.86,39.3,0
"2021-11-29 10:16:02+00",13.9,14.9,,,-377,494,20,1009.88,39.2,0
"2021-11-29 10:21:02+00",11.1,13.1,,39.3,-296,385,17,1009.89,39.1,0
"2021-11-29 10:26:02+00",11.5,14.5,,,-336,393,30,1010.09,39,0
"2021-11-29 10:31:02+00",12.4,13.4,,39.3,-377,402,32,1010.17,39,0
"2021-11-29 10:36:02+00",11.1,14.1,,39.4,-382,341,35,1010.19,39.1,0
"2021-11-29 10:41:02+00",12.0,13.0,,,-395,372,24,1010.2,39,0
"2021-11-29 10:46:02+00",12.9,14.9,,,-402,421,15,1010.14,39,0
"2021-11-29 10:51:02+00",13.4,14.4,,39.3,-416,427,26,1010.25,39.1,0
"2021-11-29 10:56:02+00",10.5,12.5,,39.3,-400,249,43,1010.38,39,0
"2021-11-29 11:01:02+00",9.7,10.7,,39.2,-370,218,31,1010.4,39,0
"2021-11-29 11:06:02+00",9.6,10.6,,,-393,211,28,1010.46,38.9,0
"2021-11-29 11:11:02+00",13.7,15.7,,39.1,-535,312,36,1010.39,38.8,0
"2021-11-29 11:16:02+00",15.4,17.4,,39.1,-576,382,41,1010.61,38.8,0
"2021-11-29 11:21:02+00",14.1,18.1,,39,-471,401,44,1010.49,38.7,0
"2021-11-29 11:26:02+00",15.2,17.2,,38.9,-525,438,36,1010.48,38.7,0
"2021-11-29 11:31:02+00",14.4,16.4,,,-518,383,15,1010.61,38.7,0
"2021-11-29 11:36:02+00",13.9,15.9,,,-521,349,38,1010.6,38.6,0
"2021-11-29 11:41:02+00",12.3,15.3,,38.8,-454,333,61,1010.67,38.5,0
"2021-11-29 11:46:02+00",14.3,16.3,,38.8,-500,381,29,1010.81,38.5,0
"2021-11-29 11:51:02+00",13.1,15.1,,38.8,-486,319,44,1011.01,38.5,0
"2021-11-29 11:56:02+00",15.3,16.3,,38.8,-577,361,32,1011.19,38.5,0
"2021-11-29 12:01:02+00",12.9,14.9,,,-493,313,39,1011.12,38.5,0
"2021-11-29 12:06:02+00",14.1,15.1,,38.7,-533,350,33,1011.15,38.4,0
"2021-11-29 12:11:02+00",13.6,16.6,,38.7,-533,325,28,1011.27,38.3,0
"2021-11-29 12:16:02+00",15.6,18.6,,38.5,-588,403,38,1011.11,38.3,0
"2021-11-29 12:21:02+00",15.9,16.9,,,-567,430,42,1011.06,38.3,0
"2021-11-29 12:26:02+00",14.6,17.6,,,-529,361,41,1011.17,38.2,0
"2021-11-29 12:31:02+00",14.5,16.5,,,-560,353,34,1011.18,38.2,0
"2021-11-29 12:36:02+00",13.2,16.2,,38.3,-486,357,45,1011.27,38.1,0
"2021-11-29 12:41:02+00",16.1,18.1,,38.2,-595,422,31,1011.32,38,0
"2021-11-29 12:46:02+00",15.5,17.5,,38,-576,398,33,1011.38,38,0
"2021-11-29 12:51:02+00",14.4,16.4,,38,-490,422,36,1011.37,37.9,0
"2021-11-29 12:56:02+00",12.7,14.7,,38,-463,339,47,1011.46,37.9,0
"2021-11-29 13:01:02+00",14.9,16.9,,37.9,-529,397,35,1011.47,37.9,0
"2021-11-29 13:06:02+00",16.6,18.6,,37.9,-593,464,37,1011.5,37.9,0.1
"2021-11-29 13:11:02+00",17.0,19.0,,38,-567,507,25,1011.4,37.9,0
"2021-11-29 13:16:02+00",15.2,17.2,,,-551,375,57,1011.52,38,0.5
"2021-11-29 13:21:02+00",16.8,18.8,,,-637,429,30,1011.54,38,0.5
"2021-11-29 13:26:02+00",14.5,16.5,,38.1,-501,418,58,1011.56,38.1,0.2
"2021-11-29 13:31:02+00",18.2,21.2,,,-677,471,23,1011.61,38.1,1.5
"2021-11-29 13:36:02+00",15.4,18.4,,38.1,-563,411,40,1011.65,38.1,3.5
"2021-11-29 13:41:02+00",18.9,21.9,,37.9,-695,486,28,1011.71,38,5.4
"2021-11-29 13:46:02+00",17.2,21.2,,37.9,-587,486,48,1011.62,38,3.7
"2021-11-29 13:51:02+00",18.0,20.0,,38,-650,496,58,1011.65,38.1,82.8
"2021-11-29 13:56:02+00",17.0,20.0,,,-572,472,55,1011.74,38.1,18.3
"2021-11-29 14:01:02+00",18.5,21.5,,,-696,482,36,1011.85,37.8,1.7
"2021-11-29 14:06:02+00",16.7,17.7,,37.7,-583,459,41,1011.8,38.1,74.4
"2021-11-29 14:11:02+00",18.0,25.0,,,-693,490,41,1011.79,38.4,137.9
"2021-11-29 14:16:02+00",15.9,20.9,,,-537,482,42,1011.75,39,144.3
"2021-11-29 14:21:02+00",17.9,21.9,,38.6,-638,536,61,1011.65,39.4,153.7
"2021-11-29 14:26:02+00",19.8,22.8,,38.9,-632,638,40,1011.72,39.7,160.9
"2021-11-29 14:31:02+00",15.7,19.7,,39.2,-488,501,61,1011.75,40,157.6
"2021-11-29 14:36:02+00",19.5,21.5,,,-637,603,41,1011.78,40.3,163.6
"2021-11-29 14:41:02+00",19.2,22.2,,39.2,-618,599,27,1011.83,40.3,169.2
"2021-11-29 14:46:02+00",18.6,21.6,,39.4,-557,618,32,1011.85,40.5,182.8
"2021-11-29 14:51:02+00",16.2,20.2,,,-616,442,33,1011.88,40.9,185.7
"2021-11-29 14:56:02+00",17.0,20.0,,,-573,514,39,1011.91,41,190.5
"2021-11-29 15:01:02+00",17.5,21.5,,,-551,523,36,1011.91,41.1,195.9
"2021-11-29 15:06:02+00",14.9,20.9,,40.1,-544,402,48,1011.83,41.5,202.3
"2021-11-29 15:11:02+00",17.7,21.7,,40.4,-679,426,64,1011.85,41.7,189.7
"2021-11-29 15:16:02+00",19.4,22.4,,40.4,-713,501,35,1011.8,41.8,207
"2021-11-29 15:21:02+00",19.7,22.7,,,-599,645,41,1011.83,42,199.8
"2021-11-29 15:26:02+00",19.7,23.7,,,-489,733,21,1011.88,42.1,222.4
"2021-11-29 15:31:02+00",16.9,21.9,,41,-451,627,40,1011.85,42.2,218.3
"2021-11-29 15:36:02+00",15.6,18.6,,,-436,528,58,1011.8,42.4,224.9
"2021-11-29 15:41:02+00",20.6,24.6,,,-624,666,45,1011.66,42.7,226
"2021-11-29 15:46:02+00",18.0,20.0,,41.6,-434,666,38,1011.72,42.9,229.4
"2021-11-29 15:51:02+00",20.3,22.3,,,-654,637,50,1011.75,42.8,233
"2021-11-29 15:56:02+00",17.3,20.3,,41.7,-549,566,62,1011.66,43,234.2
"2021-11-29 16:01:02+00",14.5,17.5,,41.9,-463,458,53,1011.7,43.2,228.3
"2021-11-29 16:06:02+00",15.1,18.1,,41.6,-289,597,75,1011.63,42.9,88.3
"2021-11-29 16:11:02+00",20.8,23.8,,,-582,693,50,1011.58,42.9,228.2
"2021-11-29 16:16:02+00",21.4,23.4,,41.6,-614,725,55,1011.51,42.9,249.4
"2021-11-29 16:21:02+00",18.8,21.8,,41.5,-613,617,34,1011.53,42.9,247.1
"2021-11-29 16:26:02+00",21.2,25.2,,41.7,-614,710,34,1011.46,43,248.1
"2021-11-29 16:31:02+00",20.4,24.4,,41.7,-710,576,31,1011.51,43.2,254.1
"2021-11-29 16:36:02+00",23.0,26.0,,41.7,-593,834,42,1011.44,43,268.5
"2021-11-29 16:41:02+00",24.5,26.5,,41.5,-774,779,53,1011.56,42.7,202.7
"2021-11-29 16:46:02+00",16.7,18.7,,41.7,-509,539,38,1011.42,43,257.2
"2021-11-29 16:51:02+00",23.6,26.6,,41.9,-778,719,75,1011.39,43.3,232.3
"2021-11-29 16:56:02+00",16.1,18.1,,,-462,545,27,1011.45,43.4,264.9
"2021-11-29 17:01:02+00",21.6,24.6,,42.4,-721,646,92,1011.31,43.8,278.7
"2021-11-29 17:06:02+00",19.1,23.1,,42.4,-483,695,79,1011.43,43.8,218
"2021-11-29 17:11:02+00",25.7,28.7,,41.9,-714,908,57,1011.54,42.9,22
"2021-11-29 17:16:02+00",21.7,25.7,,41.8,-704,668,45,1011.62,42.5,188.4
"2021-11-29 17:21:02+00",25.6,28.6,,,-785,830,60,1011.51,42.1,12.1
"2021-11-29 17:26:02+00",24.4,27.4,,41.6,-695,825,50,1011.65,42.4,241
"2021-11-29 17:31:02+00",20.4,24.4,,42.1,-621,641,86,1011.57,42.9,97.1
"2021-11-29 17:36:02+00",22.3,24.3,,,-669,751,48,1011.62,42.7,205.3
"2021-11-29 17:41:02+00",18.8,21.8,,,-575,615,35,1011.44,43.2,261.4
"2021-11-29 17:46:02+00",19.2,23.2,,42.3,-706,521,53,1011.39,43.8,301.7
"2021-11-29 17:51:02+00",18.8,21.8,,42.3,-631,588,88,1011.37,43.8,292.2
"2021-11-29 17:56:02+00",21.0,25.0,,41.9,-658,668,56,1011.46,43.3,132.2
"2021-11-29 18:01:02+00",22.9,26.9,,41.9,-789,638,58,1011.33,43.4,301.7
"2021-11-29 18:06:02+00",20.1,23.1,,41.9,-780,465,41,1011.35,43.9,224
"2021-11-29 18:11:02+00",17.2,19.2,,41.6,-658,405,44,1011.4,43.2,26.9
"2021-11-29 18:16:02+00",16.4,19.4,,41.5,-544,483,37,1011.6,42.5,4.2
"2021-11-29 18:21:02+00",17.1,21.1,,41.8,-536,560,51,1011.75,42.3,21.6
"2021-11-29 18:26:02+00",19.8,22.8,,41.7,-524,736,41,1011.68,42.2,34.5
"2021-11-29 18:31:02+00",17.2,21.2,,41.7,-433,639,34,1011.71,42.1,39.3
"2021-11-29 18:36:02+00",19.2,22.2,,41.6,-630,571,53,1011.68,42,29.7
"2021-11-29 18:41:02+00",21.8,24.8,,41.5,-751,642,39,1011.72,41.8,22.3
"2021-11-29 18:46:02+00",20.5,23.5,,41.6,-646,649,60,1011.73,42,43.6
"2021-11-29 18:51:02+00",15.3,19.3,,41.7,-485,491,52,1011.84,42,142.6
"2021-11-29 18:56:02+00",17.0,20.0,,42.1,-365,662,33,1011.72,42.8,191
"2021-11-29 19:01:02+00",18.7,21.7,,41.8,-412,744,25,1011.67,42.7,57.7
"2021-11-29 19:06:02+00",17.8,19.8,,41.6,-424,670,37,1011.69,42.3,5.7
"2021-11-29 19:11:02+00",17.9,20.9,,41.8,-395,686,44,1011.72,42.1,11.4
"2021-11-29 19:16:02+00",18.2,22.2,,41.6,-302,759,19,1011.84,42,0.5
"2021-11-29 19:21:02+00",16.2,22.2,,,-283,669,12,1011.89,41.6,0
"2021-11-29 19:26:02+00",20.5,23.5,,41,-320,866,-1,1011.91,41.1,0
"2021-11-29 19:31:02+00",18.0,20.0,,40.8,-392,693,38,1011.88,40.8,0.9
"2021-11-29 19:36:02+00",17.4,19.4,,,-473,627,31,1011.84,41.1,136.4
"2021-11-29 19:41:02+00",21.0,25.0,,,-635,700,47,1011.85,41.5,3.6
"2021-11-29 19:46:02+00",17.9,20.9,,41.4,-546,590,69,1011.95,41.8,100.4
"2021-11-29 19:51:02+00",22.1,24.1,,41.3,-667,730,39,1011.84,41.5,19.8
"2021-11-29 19:56:02+00",17.9,20.9,,41.2,-581,587,41,1011.94,41.3,8.1
"2021-11-29 20:01:02+00",14.2,17.2,,,-452,435,62,1011.94,41.9,100.9
"2021-11-29 20:06:02+00",18.5,21.5,,42,-436,706,49,1012.08,42.4,40.1
"2021-11-29 20:11:02+00",15.3,18.3,,41.8,-381,580,58,1012.18,42.3,0
"2021-11-29 20:16:02+00",18.0,21.0,,41.4,-347,706,18,1012.31,41.6,0
"2021-11-29 20:21:02+00",18.8,21.8,,41.2,-445,696,25,1012.49,41.2,0
"2021-11-29 20:26:02+00",14.6,18.6,,,-337,554,26,1012.56,41.2,55.5
"2021-11-29 20:31:02+00",15.5,17.5,,41.2,-305,638,29,1012.53,41.4,8.2
"2021-11-29 20:36:02+00",23.3,26.3,,40.9,-613,848,53,1012.39,40.8,0
"2021-11-29 20:41:02+00",20.5,23.5,,40.9,-581,688,39,1012.58,40.6,0
"2021-11-29 20:46:02+00",21.2,26.2,,,-631,718,43,1012.61,40.9,5.6
"2021-11-29 20:51:02+00",19.1,20.1,,,-574,628,38,1012.74,40.6,0
"2021-11-29 20:56:02+00",18.5,20.5,,40.9,-533,637,40,1012.78,40.9,13.9
"2021-11-29 21:01:02+00",15.6,17.6,,41,-535,467,58,1012.8,41.1,0.1
"2021-11-29 21:06:02+00",17.3,21.3,,,-504,556,63,1012.9,41,0
"2021-11-29 21:11:02+00",14.6,16.6,,40.9,-399,509,45,1013,40.8,0
"2021-11-29 21:16:02+00",16.5,19.5,,40.7,-494,550,49,1013.06,40.6,0
"2021-11-29 21:21:02+00",16.5,19.5,,40.5,-399,605,25,1013.15,40.3,0
"2021-11-29 21:26:02+00",14.9,17.9,,,-380,541,39,1013.14,40,0
"2021-11-29 21:31:02+00",15.3,18.3,,40.2,-357,574,40,1013.16,39.7,0
"2021-11-29 21:36:02+00",13.1,15.1,,,-303,490,35,1013.28,39.4,0
"2021-11-29 21:41:02+00",11.8,13.8,,39.8,-276,436,31,1013.32,39.2,0
"2021-11-29 21:46:02+00",13.3,16.3,,39.8,-379,446,37,1013.41,39.2,0
"2021-11-29 21:51:02+00",13.2,16.2,,,-371,485,24,1013.53,39.2,0
"2021-11-29 21:56:02+00",13.5,14.5,,39.7,-348,485,29,1013.48,39.1,0
"2021-11-29 22:01:02+00",10.0,11.0,,39.5,-274,344,25,1013.61,38.8,0
"2021-11-29 22:06:02+00",12.0,13.0,,39.7,-363,383,21,1013.73,38.8,0
"2021-11-29 22:11:02+00",11.8,14.8,,,-426,340,36,1013.67,39.2,0
"2021-11-29 22:16:02+00",14.8,16.8,,40,-496,435,34,1013.76,39.3,0
"2021-11-29 22:21:02+00",14.3,16.3,,39.9,-449,459,49,1013.78,39.4,0
"2021-11-29 22:26:02+00",15.7,16.7,,,-448,530,27,1013.91,39.2,0
"2021-11-29 22:31:02+00",14.8,15.8,,39.6,-464,464,41,1013.99,39.2,0
"2021-11-29 22:36:02+00",12.5,15.5,,,-381,414,34,1013.98,39.1,0
"2021-11-29 22:41:02+00",13.9,15.9,,39.4,-451,404,58,1013.99,39,0
"2021-11-29 22:46:02+00",13.8,15.8,,39.4,-433,449,35,1014.08,39,0
"2021-11-29 22:51:02+00",13.4,16.4,,39.4,-422,454,44,1014.14,38.9,0
"2021-11-29 22:56:02+00",12.2,15.2,,39.3,-375,395,47,1014.25,38.9,0
"2021-11-29 23:01:02+00",14.1,18.1,,,-448,464,27,1014.2,38.7,0
"2021-11-29 23:06:02+00",12.9,14.9,,39.1,-394,419,34,1014.24,38.5,0
"2021-11-29 23:11:02+00",10.4,12.4,,38.9,-301,344,32,1014.32,38.2,0
"2021-11-29 23:16:02+00",11.6,12.6,,38.6,-343,388,26,1014.41,37.9,0
"2021-11-29 23:21:02+00",11.7,14.7,,38.5,-332,394,35,1014.44,37.6,0
"2021-11-29 23:26:02+00",12.4,14.4,,38.2,-345,428,20,1014.49,37.4,0
"2021-11-29 23:31:02+00",11.5,13.5,,38,-306,412,20,1014.46,37.1,0
"2021-11-29 23:36:02+00",12.1,14.1,,,-332,426,22,1014.52,36.9,0
"2021-11-29 23:41:02+00",11.6,12.6,,,-323,406,26,1014.6,36.7,0
"2021-11-29 23:46:02+00",11.2,12.2,,37.5,-304,393,15,1014.54,36.5,0
"2021-11-29 23:51:02+00",11.2,13.2,,37.4,-322,392,21,1014.68,36.4,0
"2021-11-29 23:56:02+00",12.5,14.5,,37.4,-350,429,15,1014.82,36.4,0
